WY1U-1 Weather Reports


time (UTC)temp
C
wind
direction
speed
KPH
gust
KPH
rain 1hr
cm
rain 24hr
cm
rain mn
cm
humidity
%
barometer
mb
20260506190153 15 197 4.8 12.9 0.10 0.20 0.20 95 1008.3
20260506180150 15 199 6.4 16.1 0.08 0.08 0.08 93 1008.4
20260506170150 15 210 6.4 16.1 0.00 0.00 0.00 87 1009.8
20260506160150 17 194 8.0 27.4 0.00 0.00 0.00 75 1010.2
20260506150150 17 211 8.0 19.3 0.00 0.00 0.00 75 1010.2
20260506130150 17 198 4.8 16.1 0.00 0.00 0.00 79 1010.4
20260506120150 15 218 4.8 12.9 0.00 0.00 0.00 86 1010.9
20260506110150 14 218 4.8 11.3 0.00 0.00 0.00 90 1011.0
20260506100150 13 202 3.2 9.7 0.00 0.00 0.00 91 1010.8
20260506080150 14 204 4.8 11.3 0.00 0.00 0.00 87 1011.0
20260506070150 15 195 3.2 8.0 0.00 0.00 0.00 85 1011.1
20260506060152 15 195 3.2 11.3 0.00 0.00 0.00 82 1011.0
20260506050150 16 198 3.2 6.4 0.00 0.00 0.00 79 1011.2
20260506040149 17 199 3.2 12.9 0.00 0.00 0.00 74 1011.3
20260506030150 17 200 6.4 19.3 0.00 0.00 0.00 68 1011.2
20260506020150 17 201 6.4 14.5 0.00 0.00 0.00 68 1011.0
20260506010150 18 203 4.8 9.7 0.00 0.00 0.00 65 1010.3
20260506003149 18 222 9.7 27.4 0.00 0.00 0.00 63 1010.0
20260506000150 18 219 8.0 29.0 0.00 0.00 0.00 61 1009.6
20260505230150 20 221 6.4 24.1 0.00 0.00 0.00 58 1008.9
20260505220150 21 210 6.4 22.5 0.00 0.00 0.00 56 1008.9
20260505210150 22 210 8.0 16.1 0.00 0.00 0.00 53 1008.8
20260505200150 22 213 9.7 29.0 0.00 0.00 0.00 53 1009.0